Regional Weather Roundup
Issued by NWS Goodland, KS

Home | Current Version | Previous Version | Text Only | Print | Product List | Glossary On
Versions: 1 2 3 4 5 6 7 8 9 10 11 12 13 14 15 16 17 18 19 20 21 22 23 24 25 26 27 28 29 30 31 32 33 34 35 36 37 38 39 40 41 42 43 44 45 46 47 48 49 50
000
ASUS43 KGLD 240308
RWRGLD

GOODLAND FORECAST AREA HOURLY WEATHER ROUNDUP
NATIONAL WEATHER SERVICE GOODLAND KS
800 PM MST MON JAN 23 2017

...OFFICIAL OBSERVATIONS...

CITY           SKY/WX    TMP DP  RH WIND       PRES   REMARKS
GOODLAND KS    CLEAR     32  26  78 E6        29.51F
HILL CITY KS   CLEAR     42  35  76 SE10      29.58F
IMPERIAL NEB   CLOUDY    38  29  70 E9        29.56S
MCCOOK NEB     CLOUDY    37  31  78 E9        29.58R
AKRON CO       CLOUDY    32  24  72 E10       29.52F
BURLINGTON CO  CLEAR     34  27  75 N5        29.52S
LIMON CO       CLEAR     36  24  62 NW5       29.49F
$$

...UNOFFICIAL OBSERVATIONS...

CITY           SKY/WX    TMP DP  RH WIND       PRES   REMARKS
LENORA KS        N/A     37  32  82 E7          N/A
NORTON KS      CLEAR     37  28  70 E10       29.59S
SHARON SPRINGS   N/A     38  31  75 CALM        N/A
TRENTON NEB      N/A     36  32  85 E6          N/A
KIT CARSON CO    N/A     38  27  65 CALM        N/A
YUMA CO        FAIR      30  27  86 N9        29.53F
$$



USA.gov is the U.S. government's official web portal to all federal, state and local government web resources and services.